Location: Milo
(50.5667°N, 112.8833°W)
Time: 02:40:18
(UTC+00:00)

ISS - Pass Details

Date: 05 December 2021
Orbit: 413 x 422 km, 51.6° (Epoch: 22 January)

Event Time Altitude Azimuth Distance (km) Brightness Sun altitude
Rises 02:10:44 0° 284° (WNW) 2,384 1.2 -24.7°
Reaches altitude 10° 02:13:10 10° 268° (W) 1,513 0.1 -25.1°
Maximum altitude 02:15:46 21° 218° (SW) 1,020 -1.4 -25.5°
Enters shadow 02:15:52 21° 215° (SW) 1,021 -1.4 -25.5°
